Time,TemperatureF,DewpointF,PressureIn,WindDirection,WindDirectionDegrees,WindSpeedMPH,WindSpeedGustMPH,Humidity,HourlyPrecipIn,Conditions,Clouds,dailyrainin,SoftwareType,DateUTC
2013-01-16 00:00:00,33.6,32.8,30.12,ENE,73,0.0,1.0,97,0.03,,,0.35,WUHU216DAVISVP2,2013-01-16 05:00:00,
2013-01-16 00:01:00,33.6,32.8,30.11,ENE,73,0.0,1.0,97,0.03,,,0.00,WUHU216DAVISVP2,2013-01-16 05:01:00,
2013-01-16 00:03:00,33.6,32.8,30.11,ENE,73,0.0,1.0,97,0.02,,,0.00,WUHU216DAVISVP2,2013-01-16 05:03:00,
2013-01-16 00:08:00,33.6,32.6,30.12,ENE,73,0.0,1.0,96,0.02,,,0.00,WUHU216DAVISVP2,2013-01-16 05:08:00,
2013-01-16 00:13:00,33.5,32.4,30.12,ENE,73,0.0,0.0,96,0.01,,,0.00,WUHU216DAVISVP2,2013-01-16 05:13:00,
2013-01-16 00:18:00,33.5,32.4,30.12,ENE,73,0.0,0.0,96,0.01,,,0.00,WUHU216DAVISVP2,2013-01-16 05:18:00,
2013-01-16 00:23:00,33.5,32.4,30.12,ENE,73,0.0,0.0,96,0.01,,,0.00,WUHU216DAVISVP2,2013-01-16 05:23:00,
2013-01-16 00:28:00,33.4,32.4,30.12,ENE,73,0.0,0.0,96,0.01,,,0.00,WUHU216DAVISVP2,2013-01-16 05:28:00,
2013-01-16 00:33:00,33.4,32.4,30.11,ENE,73,0.0,0.0,96,0.01,,,0.00,WUHU216DAVISVP2,2013-01-16 05:33:00,
2013-01-16 00:38:00,33.4,32.6,30.10,ENE,73,0.0,2.0,97,0.01,,,0.00,WUHU216DAVISVP2,2013-01-16 05:38:00,
2013-01-16 00:43:00,33.3,32.5,30.09,ENE,73,0.0,2.0,97,0.00,,,0.00,WUHU216DAVISVP2,2013-01-16 05:43:00,
2013-01-16 00:48:00,33.3,32.5,30.08,ENE,73,0.0,2.0,97,0.00,,,0.00,WUHU216DAVISVP2,2013-01-16 05:48:00,
2013-01-16 00:53:00,33.3,32.5,30.08,ENE,73,0.0,2.0,97,0.01,,,0.01,WUHU216DAVISVP2,2013-01-16 05:53:00,
2013-01-16 00:58:00,33.3,32.5,30.07,ENE,73,0.0,1.0,97,0.01,,,0.01,WUHU216DAVISVP2,2013-01-16 05:58:00,
2013-01-16 01:03:00,33.3,32.5,30.07,NE,56,0.0,2.0,97,0.02,,,0.02,WUHU216DAVISVP2,2013-01-16 06:03:00,
2013-01-16 01:08:00,33.4,32.6,30.08,NNE,27,0.0,2.0,97,0.02,,,0.02,WUHU216DAVISVP2,2013-01-16 06:08:00,
2013-01-16 01:13:00,33.4,32.6,30.07,NNE,27,0.0,2.0,97,0.03,,,0.03,WUHU216DAVISVP2,2013-01-16 06:13:00,
2013-01-16 01:18:00,33.5,32.7,30.08,West,276,0.0,3.0,97,0.03,,,0.03,WUHU216DAVISVP2,2013-01-16 06:18:00,
2013-01-16 01:23:00,33.5,32.7,30.08,West,276,0.0,3.0,97,0.03,,,0.03,WUHU216DAVISVP2,2013-01-16 06:23:00,
2013-01-16 01:28:00,33.5,32.7,30.08,West,276,0.0,3.0,97,0.03,,,0.03,WUHU216DAVISVP2,2013-01-16 06:28:00,
2013-01-16 01:33:00,33.5,32.7,30.08,West,276,0.0,3.0,97,0.03,,,0.03,WUHU216DAVISVP2,2013-01-16 06:33:00,
2013-01-16 01:38:00,33.5,32.7,30.06,West,277,2.0,2.0,97,0.03,,,0.03,WUHU216DAVISVP2,2013-01-16 06:38:00,
2013-01-16 01:43:00,33.5,32.7,30.07,NE,43,0.0,3.0,97,0.03,,,0.03,WUHU216DAVISVP2,2013-01-16 06:43:00,
2013-01-16 01:48:00,33.5,32.7,30.07,NE,43,0.0,3.0,97,0.03,,,0.03,WUHU216DAVISVP2,2013-01-16 06:48:00,
2013-01-16 01:53:00,33.5,32.7,30.07,NE,43,0.0,3.0,97,0.02,,,0.03,WUHU216DAVISVP2,2013-01-16 06:53:00,
2013-01-16 01:58:00,33.5,32.7,30.07,NE,43,0.0,3.0,97,0.02,,,0.03,WUHU216DAVISVP2,2013-01-16 06:58:00,
2013-01-16 02:03:00,33.5,32.7,30.08,NE,43,1.0,1.0,97,0.01,,,0.03,WUHU216DAVISVP2,2013-01-16 07:03:00,
2013-01-16 02:08:00,33.5,32.7,30.08,NE,43,0.0,1.0,97,0.01,,,0.03,WUHU216DAVISVP2,2013-01-16 07:08:00,
2013-01-16 02:13:00,33.5,32.7,30.08,NE,43,0.0,1.0,97,0.01,,,0.04,WUHU216DAVISVP2,2013-01-16 07:13:00,
2013-01-16 02:18:00,33.5,32.7,30.08,NE,43,0.0,1.0,97,0.01,,,0.04,WUHU216DAVISVP2,2013-01-16 07:18:00,
2013-01-16 02:23:00,33.5,32.7,30.08,NE,43,0.0,0.0,97,0.01,,,0.04,WUHU216DAVISVP2,2013-01-16 07:23:00,
2013-01-16 02:28:00,33.5,32.7,30.07,NE,43,0.0,0.0,97,0.01,,,0.04,WUHU216DAVISVP2,2013-01-16 07:28:00,
2013-01-16 02:33:00,33.5,32.7,30.07,NE,43,0.0,0.0,97,0.01,,,0.04,WUHU216DAVISVP2,2013-01-16 07:33:00,
2013-01-16 02:38:00,33.5,32.7,30.07,NE,43,0.0,1.0,97,0.01,,,0.04,WUHU216DAVISVP2,2013-01-16 07:38:00,
2013-01-16 02:43:00,33.5,32.7,30.06,NE,43,0.0,1.0,97,0.02,,,0.05,WUHU216DAVISVP2,2013-01-16 07:43:00,
2013-01-16 02:48:00,33.5,32.7,30.05,NE,43,0.0,1.0,97,0.02,,,0.05,WUHU216DAVISVP2,2013-01-16 07:48:00,
2013-01-16 02:53:00,33.5,32.7,30.05,NE,43,0.0,1.0,97,0.02,,,0.05,WUHU216DAVISVP2,2013-01-16 07:53:00,
2013-01-16 02:58:00,33.5,32.7,30.05,NE,43,0.0,0.0,97,0.02,,,0.05,WUHU216DAVISVP2,2013-01-16 07:58:00,
2013-01-16 03:03:00,33.5,33.0,30.04,NE,43,0.0,0.0,98,0.02,,,0.05,WUHU216DAVISVP2,2013-01-16 08:03:00,
2013-01-16 03:08:00,33.5,33.0,30.04,NE,43,0.0,0.0,98,0.02,,,0.05,WUHU216DAVISVP2,2013-01-16 08:08:00,
2013-01-16 03:13:00,33.6,33.1,30.04,NE,43,0.0,0.0,98,0.01,,,0.05,WUHU216DAVISVP2,2013-01-16 08:13:00,
2013-01-16 03:18:00,33.6,33.1,30.03,NE,43,1.0,1.0,98,0.01,,,0.05,WUHU216DAVISVP2,2013-01-16 08:18:00,
2013-01-16 03:23:00,33.6,33.1,30.03,NE,43,0.0,2.0,98,0.01,,,0.05,WUHU216DAVISVP2,2013-01-16 08:23:00,
2013-01-16 03:28:00,33.6,33.1,30.03,NE,43,0.0,2.0,98,0.01,,,0.05,WUHU216DAVISVP2,2013-01-16 08:28:00,
2013-01-16 03:33:00,33.6,33.1,30.02,NE,43,0.0,2.0,98,0.01,,,0.05,WUHU216DAVISVP2,2013-01-16 08:33:00,
2013-01-16 03:38:00,33.6,33.1,30.02,NE,43,0.0,2.0,98,0.01,,,0.05,WUHU216DAVISVP2,2013-01-16 08:38:00,
2013-01-16 03:43:00,33.6,33.1,30.02,NE,43,0.0,1.0,98,0.00,,,0.05,WUHU216DAVISVP2,2013-01-16 08:43:00,
2013-01-16 03:48:00,33.6,32.8,30.02,NE,43,0.0,1.0,97,0.00,,,0.05,WUHU216DAVISVP2,2013-01-16 08:48:00,
2013-01-16 03:53:00,33.6,32.8,30.03,NE,43,0.0,1.0,97,0.01,,,0.06,WUHU216DAVISVP2,2013-01-16 08:53:00,
2013-01-16 03:58:00,33.6,32.8,30.04,NE,43,0.0,1.0,97,0.01,,,0.06,WUHU216DAVISVP2,2013-01-16 08:58:00,
2013-01-16 04:03:00,33.6,32.8,30.04,NE,43,0.0,1.0,97,0.01,,,0.06,WUHU216DAVISVP2,2013-01-16 09:03:00,
2013-01-16 04:08:00,33.6,32.8,30.04,NE,43,0.0,1.0,97,0.01,,,0.06,WUHU216DAVISVP2,2013-01-16 09:08:00,
2013-01-16 04:13:00,33.6,32.8,30.04,NE,43,0.0,1.0,97,0.01,,,0.06,WUHU216DAVISVP2,2013-01-16 09:13:00,
2013-01-16 04:18:00,33.6,32.8,30.03,NE,43,0.0,1.0,97,0.01,,,0.06,WUHU216DAVISVP2,2013-01-16 09:18:00,
2013-01-16 04:23:00,33.6,32.8,30.03,NE,43,0.0,1.0,97,0.02,,,0.07,WUHU216DAVISVP2,2013-01-16 09:23:00,
2013-01-16 04:28:00,33.6,32.8,30.03,NE,43,2.0,2.0,97,0.02,,,0.07,WUHU216DAVISVP2,2013-01-16 09:28:00,
2013-01-16 04:33:00,33.6,32.8,30.03,NE,43,0.0,2.0,97,0.02,,,0.07,WUHU216DAVISVP2,2013-01-16 09:33:00,
2013-01-16 04:38:00,33.7,33.2,30.03,NE,43,0.0,2.0,98,0.02,,,0.07,WUHU216DAVISVP2,2013-01-16 09:38:00,
2013-01-16 04:43:00,33.7,33.2,30.03,NE,43,0.0,2.0,98,0.03,,,0.08,WUHU216DAVISVP2,2013-01-16 09:43:00,
2013-01-16 04:48:00,33.7,33.2,30.03,NE,43,0.0,1.0,98,0.03,,,0.08,WUHU216DAVISVP2,2013-01-16 09:48:00,
2013-01-16 04:53:00,33.7,33.2,30.03,NE,43,0.0,1.0,98,0.02,,,0.08,WUHU216DAVISVP2,2013-01-16 09:53:00,
2013-01-16 04:58:00,33.7,33.2,30.03,NE,43,0.0,1.0,98,0.02,,,0.08,WUHU216DAVISVP2,2013-01-16 09:58:00,
2013-01-16 05:03:00,33.7,33.2,30.02,NE,43,0.0,1.0,98,0.03,,,0.09,WUHU216DAVISVP2,2013-01-16 10:03:00,
2013-01-16 05:08:00,33.7,33.2,30.02,NE,43,0.0,0.0,98,0.03,,,0.09,WUHU216DAVISVP2,2013-01-16 10:08:00,
2013-01-16 05:13:00,33.7,33.2,30.01,NE,43,0.0,0.0,98,0.03,,,0.09,WUHU216DAVISVP2,2013-01-16 10:13:00,
2013-01-16 05:18:00,33.7,33.2,30.01,NE,43,0.0,0.0,98,0.04,,,0.10,WUHU216DAVISVP2,2013-01-16 10:18:00,
2013-01-16 05:23:00,33.7,33.2,30.01,NE,43,0.0,0.0,98,0.03,,,0.10,WUHU216DAVISVP2,2013-01-16 10:23:00,
2013-01-16 05:28:00,33.7,33.2,30.00,NE,43,0.0,1.0,98,0.03,,,0.10,WUHU216DAVISVP2,2013-01-16 10:28:00,
2013-01-16 05:33:00,33.7,33.2,30.00,NE,43,0.0,1.0,98,0.03,,,0.10,WUHU216DAVISVP2,2013-01-16 10:33:00,
2013-01-16 05:38:00,33.6,33.1,30.00,NE,43,0.0,1.0,98,0.03,,,0.10,WUHU216DAVISVP2,2013-01-16 10:38:00,
2013-01-16 05:43:00,33.7,33.2,30.00,North,8,2.0,4.0,98,0.02,,,0.10,WUHU216DAVISVP2,2013-01-16 10:43:00,
2013-01-16 05:48:00,33.7,33.2,30.00,North,4,0.0,4.0,98,0.02,,,0.10,WUHU216DAVISVP2,2013-01-16 10:48:00,
2013-01-16 05:53:00,33.7,33.2,30.00,North,4,0.0,4.0,98,0.03,,,0.11,WUHU216DAVISVP2,2013-01-16 10:53:00,
2013-01-16 05:58:00,33.7,33.2,30.00,North,4,0.0,4.0,98,0.03,,,0.11,WUHU216DAVISVP2,2013-01-16 10:58:00,
2013-01-16 06:03:00,33.7,33.2,29.99,North,4,0.0,3.0,98,0.02,,,0.11,WUHU216DAVISVP2,2013-01-16 11:03:00,
2013-01-16 06:08:00,33.7,33.2,29.99,North,4,0.0,3.0,98,0.02,,,0.11,WUHU216DAVISVP2,2013-01-16 11:08:00,
2013-01-16 06:13:00,33.7,33.2,29.99,North,4,0.0,0.0,98,0.03,,,0.12,WUHU216DAVISVP2,2013-01-16 11:13:00,
2013-01-16 06:18:00,33.7,33.2,29.98,North,4,0.0,0.0,98,0.02,,,0.12,WUHU216DAVISVP2,2013-01-16 11:18:00,
2013-01-16 06:23:00,33.7,33.2,29.98,North,4,0.0,0.0,98,0.02,,,0.12,WUHU216DAVISVP2,2013-01-16 11:23:00,
2013-01-16 06:28:00,33.7,33.2,29.98,North,4,0.0,1.0,98,0.02,,,0.12,WUHU216DAVISVP2,2013-01-16 11:28:00,
2013-01-16 06:33:00,33.7,33.2,29.98,North,8,0.0,1.0,98,0.02,,,0.12,WUHU216DAVISVP2,2013-01-16 11:33:00,
2013-01-16 06:38:00,33.8,33.3,29.97,North,8,2.0,2.0,98,0.02,,,0.12,WUHU216DAVISVP2,2013-01-16 11:38:00,
2013-01-16 06:43:00,33.8,33.3,29.95,North,4,0.0,2.0,98,0.02,,,0.12,WUHU216DAVISVP2,2013-01-16 11:43:00,
2013-01-16 06:48:00,33.8,33.3,29.94,North,4,0.0,2.0,98,0.02,,,0.12,WUHU216DAVISVP2,2013-01-16 11:48:00,
2013-01-16 06:53:00,33.7,33.2,29.93,North,4,2.0,3.0,98,0.01,,,0.12,WUHU216DAVISVP2,2013-01-16 11:53:00,
2013-01-16 06:58:00,33.8,33.3,29.93,North,8,1.0,3.0,98,0.01,,,0.12,WUHU216DAVISVP2,2013-01-16 11:58:00,
2013-01-16 07:03:00,33.8,33.3,29.93,North,4,0.0,3.0,98,0.01,,,0.12,WUHU216DAVISVP2,2013-01-16 12:03:00,
2013-01-16 07:08:00,33.8,33.3,29.93,North,8,0.0,3.0,98,0.01,,,0.12,WUHU216DAVISVP2,2013-01-16 12:08:00,
2013-01-16 07:13:00,33.9,33.4,29.93,NNW,329,3.0,5.0,98,0.00,,,0.12,WUHU216DAVISVP2,2013-01-16 12:13:00,
2013-01-16 07:18:00,33.9,33.4,29.93,North,350,1.0,6.0,98,0.00,,,0.12,WUHU216DAVISVP2,2013-01-16 12:18:00,
2013-01-16 07:23:00,34.0,33.5,29.94,North,349,3.0,6.0,98,0.00,,,0.12,WUHU216DAVISVP2,2013-01-16 12:23:00,
2013-01-16 07:28:00,34.0,33.5,29.96,North,359,6.0,7.0,98,0.00,,,0.12,WUHU216DAVISVP2,2013-01-16 12:28:00,
2013-01-16 07:33:00,34.0,33.5,29.96,NNW,343,0.0,7.0,98,0.01,,,0.13,WUHU216DAVISVP2,2013-01-16 12:33:00,
2013-01-16 07:38:00,34.0,33.5,29.97,NNW,345,0.0,7.0,98,0.01,,,0.13,WUHU216DAVISVP2,2013-01-16 12:38:00,
2013-01-16 07:43:00,34.0,33.5,29.96,NNW,345,0.0,7.0,98,0.01,,,0.13,WUHU216DAVISVP2,2013-01-16 12:43:00,
2013-01-16 07:48:00,34.0,33.5,29.96,NNW,345,0.0,6.0,98,0.01,,,0.13,WUHU216DAVISVP2,2013-01-16 12:48:00,
2013-01-16 07:53:00,34.0,33.5,29.95,SE,137,2.0,4.0,98,0.01,,,0.13,WUHU216DAVISVP2,2013-01-16 12:53:00,
2013-01-16 07:58:00,34.0,33.5,29.95,South,186,3.0,5.0,98,0.01,,,0.13,WUHU216DAVISVP2,2013-01-16 12:58:00,
2013-01-16 08:03:00,34.1,33.6,29.97,South,183,1.0,5.0,98,0.01,,,0.13,WUHU216DAVISVP2,2013-01-16 13:03:00,
2013-01-16 08:08:00,34.2,33.7,29.98,NNW,331,0.0,5.0,98,0.01,,,0.13,WUHU216DAVISVP2,2013-01-16 13:08:00,
2013-01-16 08:13:00,34.2,33.7,29.99,NNW,331,0.0,5.0,98,0.01,,,0.13,WUHU216DAVISVP2,2013-01-16 13:13:00,
2013-01-16 08:18:00,34.3,33.8,29.98,ESE,123,4.0,4.0,98,0.01,,,0.13,WUHU216DAVISVP2,2013-01-16 13:18:00,
2013-01-16 08:23:00,34.3,33.8,29.97,South,170,1.0,4.0,98,0.01,,,0.13,WUHU216DAVISVP2,2013-01-16 13:23:00,
2013-01-16 08:28:00,34.3,33.8,29.97,South,170,1.0,4.0,98,0.02,,,0.14,WUHU216DAVISVP2,2013-01-16 13:28:00,
2013-01-16 08:33:00,34.3,33.8,29.99,WSW,251,1.0,4.0,98,0.01,,,0.14,WUHU216DAVISVP2,2013-01-16 13:33:00,
2013-01-16 08:38:00,34.3,33.8,29.96,ENE,77,0.0,4.0,98,0.01,,,0.14,WUHU216DAVISVP2,2013-01-16 13:38:00,
2013-01-16 08:43:00,34.3,33.8,29.95,ENE,77,0.0,3.0,98,0.02,,,0.15,WUHU216DAVISVP2,2013-01-16 13:43:00,
2013-01-16 08:48:00,34.4,33.9,29.95,ENE,77,0.0,3.0,98,0.02,,,0.15,WUHU216DAVISVP2,2013-01-16 13:48:00,
2013-01-16 08:53:00,34.3,33.8,29.93,ENE,77,0.0,3.0,98,0.02,,,0.15,WUHU216DAVISVP2,2013-01-16 13:53:00,
2013-01-16 08:58:00,34.4,33.9,29.95,NW,321,4.0,4.0,98,0.02,,,0.15,WUHU216DAVISVP2,2013-01-16 13:58:00,
2013-01-16 09:03:00,34.6,34.1,29.98,NW,308,6.0,8.0,98,0.02,,,0.15,WUHU216DAVISVP2,2013-01-16 14:03:00,
2013-01-16 09:08:00,34.6,34.1,29.99,NNE,16,4.0,10.0,98,0.02,,,0.15,WUHU216DAVISVP2,2013-01-16 14:08:00,
2013-01-16 09:13:00,34.6,34.1,29.96,NNE,29,1.0,10.0,98,0.02,,,0.15,WUHU216DAVISVP2,2013-01-16 14:13:00,
2013-01-16 09:18:00,34.6,34.1,29.99,North,9,2.0,10.0,98,0.02,,,0.15,WUHU216DAVISVP2,2013-01-16 14:18:00,
2013-01-16 09:23:00,34.7,34.2,30.01,NW,326,1.0,10.0,98,0.02,,,0.15,WUHU216DAVISVP2,2013-01-16 14:23:00,
2013-01-16 09:28:00,34.7,34.2,29.98,SE,131,1.0,3.0,98,0.01,,,0.15,WUHU216DAVISVP2,2013-01-16 14:28:00,
2013-01-16 09:33:00,34.7,34.2,29.94,South,180,3.0,3.0,98,0.01,,,0.15,WUHU216DAVISVP2,2013-01-16 14:33:00,
2013-01-16 09:38:00,34.7,34.2,29.97,SW,216,0.0,8.0,98,0.01,,,0.15,WUHU216DAVISVP2,2013-01-16 14:38:00,
2013-01-16 09:43:00,34.7,33.9,29.96,SW,222,0.0,8.0,97,0.00,,,0.15,WUHU216DAVISVP2,2013-01-16 14:43:00,
2013-01-16 09:48:00,34.7,34.2,29.94,SE,141,1.0,8.0,98,0.00,,,0.15,WUHU216DAVISVP2,2013-01-16 14:48:00,
2013-01-16 09:53:00,34.8,34.3,29.96,West,262,1.0,8.0,98,0.00,,,0.15,WUHU216DAVISVP2,2013-01-16 14:53:00,
2013-01-16 09:58:00,34.8,34.3,29.95,North,354,3.0,5.0,98,0.01,,,0.16,WUHU216DAVISVP2,2013-01-16 14:58:00,
2013-01-16 10:05:00,34.9,34.4,29.95,North,354,1.0,5.0,98,0.01,,,0.16,WUHU216DAVISVP2,2013-01-16 15:05:00,
2013-01-16 10:10:00,34.9,34.4,29.94,North,354,0.0,5.0,98,0.01,,,0.16,WUHU216DAVISVP2,2013-01-16 15:10:00,
2013-01-16 10:15:00,34.9,34.4,29.93,North,354,0.0,5.0,98,0.01,,,0.16,WUHU216DAVISVP2,2013-01-16 15:15:00,
2013-01-16 10:20:00,34.9,34.4,29.92,NE,37,2.0,3.0,98,0.01,,,0.16,WUHU216DAVISVP2,2013-01-16 15:20:00,
2013-01-16 10:33:00,35.0,34.5,29.93,NW,315,1.0,5.0,98,0.01,,,0.16,WUHU216DAVISVP2,2013-01-16 15:33:00,
2013-01-16 10:38:00,35.0,34.5,29.95,WNW,301,0.0,5.0,98,0.01,,,0.16,WUHU216DAVISVP2,2013-01-16 15:38:00,
2013-01-16 10:40:00,35.0,34.5,29.94,WNW,301,0.0,5.0,98,0.01,,,0.16,WUHU216DAVISVP2,2013-01-16 15:40:00,
2013-01-16 10:46:00,35.1,34.3,29.96,WNW,301,0.0,5.0,97,0.01,,,0.16,WUHU216DAVISVP2,2013-01-16 15:46:00,
2013-01-16 10:52:00,35.1,34.6,29.91,WSW,254,2.0,4.0,98,0.01,,,0.16,WUHU216DAVISVP2,2013-01-16 15:52:00,
2013-01-16 10:58:00,35.2,34.7,29.93,SE,126,0.0,2.0,98,0.00,,,0.16,WUHU216DAVISVP2,2013-01-16 15:58:00,
2013-01-16 11:04:00,35.1,34.6,29.93,SE,127,0.0,2.0,98,0.00,,,0.16,WUHU216DAVISVP2,2013-01-16 16:04:00,
2013-01-16 11:11:00,35.2,34.7,29.92,SE,125,0.0,3.0,98,0.01,,,0.17,WUHU216DAVISVP2,2013-01-16 16:11:00,
2013-01-16 11:17:00,35.2,34.7,29.92,SE,125,0.0,3.0,98,0.01,,,0.17,WUHU216DAVISVP2,2013-01-16 16:17:00,
2013-01-16 11:23:00,35.2,34.7,29.91,SE,125,0.0,3.0,98,0.01,,,0.17,WUHU216DAVISVP2,2013-01-16 16:23:00,
2013-01-16 11:29:00,35.3,34.8,29.93,ENE,57,1.0,2.0,98,0.01,,,0.17,WUHU216DAVISVP2,2013-01-16 16:29:00,
2013-01-16 11:36:00,35.3,34.8,29.93,NNW,328,0.0,3.0,98,0.01,,,0.17,WUHU216DAVISVP2,2013-01-16 16:36:00,
2013-01-16 11:42:00,35.4,34.9,29.92,NNW,328,0.0,3.0,98,0.01,,,0.17,WUHU216DAVISVP2,2013-01-16 16:42:00,
2013-01-16 11:48:00,35.5,35.0,29.93,NNW,328,0.0,3.0,98,0.01,,,0.17,WUHU216DAVISVP2,2013-01-16 16:48:00,
2013-01-16 11:54:00,35.5,35.0,29.92,NNW,328,1.0,2.0,98,0.02,,,0.18,WUHU216DAVISVP2,2013-01-16 16:54:00,
2013-01-16 12:00:00,35.5,35.0,29.93,NNW,328,0.0,1.0,98,0.02,,,0.18,WUHU216DAVISVP2,2013-01-16 17:00:00,
2013-01-16 12:07:00,35.7,35.2,29.92,NNW,328,0.0,1.0,98,0.01,,,0.18,WUHU216DAVISVP2,2013-01-16 17:07:00,
2013-01-16 12:13:00,35.6,35.1,29.93,NNW,328,0.0,1.0,98,0.02,,,0.19,WUHU216DAVISVP2,2013-01-16 17:13:00,
2013-01-16 12:19:00,35.7,35.2,29.92,NNW,328,0.0,1.0,98,0.02,,,0.19,WUHU216DAVISVP2,2013-01-16 17:19:00,
2013-01-16 12:25:00,35.7,35.2,29.92,NNW,328,1.0,1.0,98,0.02,,,0.19,WUHU216DAVISVP2,2013-01-16 17:25:00,
2013-01-16 12:32:00,35.7,35.2,29.92,NNW,328,0.0,1.0,98,0.02,,,0.19,WUHU216DAVISVP2,2013-01-16 17:32:00,
2013-01-16 12:38:00,35.7,35.2,29.93,NNW,328,0.0,2.0,98,0.03,,,0.20,WUHU216DAVISVP2,2013-01-16 17:38:00,
2013-01-16 12:44:00,35.7,35.2,29.92,ENE,60,0.0,2.0,98,0.03,,,0.20,WUHU216DAVISVP2,2013-01-16 17:44:00,
2013-01-16 12:50:00,35.7,35.2,29.92,ENE,60,1.0,3.0,98,0.03,,,0.21,WUHU216DAVISVP2,2013-01-16 17:50:00,
2013-01-16 12:56:00,35.7,35.2,29.92,ENE,60,0.0,3.0,98,0.03,,,0.21,WUHU216DAVISVP2,2013-01-16 17:56:00,
2013-01-16 13:03:00,35.8,35.3,29.92,ENE,60,0.0,3.0,98,0.03,,,0.21,WUHU216DAVISVP2,2013-01-16 18:03:00,
2013-01-16 13:09:00,35.9,35.4,29.92,ENE,60,0.0,3.0,98,0.03,,,0.21,WUHU216DAVISVP2,2013-01-16 18:09:00,
2013-01-16 13:15:00,36.1,35.6,29.93,ENE,64,0.0,2.0,98,0.02,,,0.21,WUHU216DAVISVP2,2013-01-16 18:15:00,
2013-01-16 13:21:00,36.2,35.7,29.94,ENE,64,0.0,2.0,98,0.03,,,0.22,WUHU216DAVISVP2,2013-01-16 18:21:00,
2013-01-16 13:34:00,36.3,35.8,29.94,South,189,0.0,2.0,98,0.02,,,0.22,WUHU216DAVISVP2,2013-01-16 18:34:00,
2013-01-16 13:39:00,36.5,36.0,29.92,South,170,0.0,4.0,98,0.03,,,0.23,WUHU216DAVISVP2,2013-01-16 18:39:00,
2013-01-16 13:44:00,36.6,36.1,29.92,South,170,0.0,4.0,98,0.03,,,0.23,WUHU216DAVISVP2,2013-01-16 18:44:00,
2013-01-16 13:49:00,36.7,36.2,29.94,SE,142,0.0,4.0,98,0.03,,,0.23,WUHU216DAVISVP2,2013-01-16 18:49:00,
2013-01-16 13:54:00,36.7,36.2,29.94,SE,141,0.0,4.0,98,0.02,,,0.23,WUHU216DAVISVP2,2013-01-16 18:54:00,
2013-01-16 14:06:00,36.7,36.2,29.95,SW,219,0.0,4.0,98,0.02,,,0.23,WUHU216DAVISVP2,2013-01-16 19:06:00,
2013-01-16 14:11:00,36.7,36.2,29.95,South,179,0.0,4.0,98,0.02,,,0.23,WUHU216DAVISVP2,2013-01-16 19:11:00,
2013-01-16 14:16:00,36.7,35.9,29.95,ESE,115,1.0,4.0,97,0.02,,,0.23,WUHU216DAVISVP2,2013-01-16 19:16:00,
2013-01-16 14:21:00,36.7,35.9,29.95,SE,139,0.0,3.0,97,0.02,,,0.24,WUHU216DAVISVP2,2013-01-16 19:21:00,
2013-01-16 14:26:00,36.8,36.0,29.95,SE,141,1.0,3.0,97,0.02,,,0.24,WUHU216DAVISVP2,2013-01-16 19:26:00,
2013-01-16 14:31:00,36.8,36.0,29.95,SSE,154,2.0,4.0,97,0.02,,,0.24,WUHU216DAVISVP2,2013-01-16 19:31:00,
2013-01-16 14:36:00,36.8,36.0,29.95,South,172,2.0,5.0,97,0.02,,,0.24,WUHU216DAVISVP2,2013-01-16 19:36:00,
2013-01-16 14:41:00,36.9,35.8,29.94,SSE,152,1.0,5.0,96,0.01,,,0.24,WUHU216DAVISVP2,2013-01-16 19:41:00,
2013-01-16 14:46:00,36.9,35.8,29.94,SSE,168,0.0,5.0,96,0.01,,,0.24,WUHU216DAVISVP2,2013-01-16 19:46:00,
2013-01-16 14:51:00,36.9,35.8,29.94,SSE,152,1.0,4.0,96,0.02,,,0.25,WUHU216DAVISVP2,2013-01-16 19:51:00,
2013-01-16 14:56:00,36.9,35.8,29.94,SSE,152,0.0,4.0,96,0.02,,,0.25,WUHU216DAVISVP2,2013-01-16 19:56:00,
2013-01-16 15:01:00,37.0,35.9,29.93,SSE,152,0.0,3.0,96,0.02,,,0.25,WUHU216DAVISVP2,2013-01-16 20:01:00,
2013-01-16 15:06:00,36.9,35.9,29.94,SSE,158,0.0,2.0,96,0.02,,,0.25,WUHU216DAVISVP2,2013-01-16 20:06:00,
2013-01-16 15:11:00,36.9,35.6,29.94,North,4,1.0,4.0,95,0.02,,,0.25,WUHU216DAVISVP2,2013-01-16 20:11:00,
2013-01-16 15:16:00,37.0,35.7,29.95,North,4,0.0,4.0,95,0.02,,,0.25,WUHU216DAVISVP2,2013-01-16 20:16:00,
2013-01-16 15:21:00,37.0,35.7,29.95,North,4,0.0,4.0,95,0.01,,,0.25,WUHU216DAVISVP2,2013-01-16 20:21:00,
2013-01-16 15:26:00,37.1,35.8,29.96,North,4,0.0,4.0,95,0.01,,,0.25,WUHU216DAVISVP2,2013-01-16 20:26:00,
2013-01-16 15:31:00,37.1,35.8,29.95,NE,40,1.0,1.0,95,0.01,,,0.25,WUHU216DAVISVP2,2013-01-16 20:31:00,
2013-01-16 15:36:00,37.2,35.9,29.96,East,84,0.0,2.0,95,0.01,,,0.25,WUHU216DAVISVP2,2013-01-16 20:36:00,
2013-01-16 15:41:00,37.2,35.9,29.97,East,85,0.0,2.0,95,0.01,,,0.25,WUHU216DAVISVP2,2013-01-16 20:41:00,
2013-01-16 15:46:00,37.3,36.0,29.97,East,85,1.0,2.0,95,0.01,,,0.25,WUHU216DAVISVP2,2013-01-16 20:46:00,
2013-01-16 15:51:00,37.3,36.0,29.96,South,187,4.0,4.0,95,0.01,,,0.26,WUHU216DAVISVP2,2013-01-16 20:51:00,
2013-01-16 15:56:00,37.4,36.1,29.97,SW,219,1.0,5.0,95,0.01,,,0.26,WUHU216DAVISVP2,2013-01-16 20:56:00,
2013-01-16 16:01:00,37.6,36.0,29.97,East,82,0.0,5.0,94,0.01,,,0.26,WUHU216DAVISVP2,2013-01-16 21:01:00,
2013-01-16 16:06:00,37.7,36.1,29.97,East,83,0.0,5.0,94,0.01,,,0.26,WUHU216DAVISVP2,2013-01-16 21:06:00,
2013-01-16 16:11:00,37.8,36.2,29.97,SW,214,5.0,5.0,94,0.01,,,0.26,WUHU216DAVISVP2,2013-01-16 21:11:00,
2013-01-16 16:16:00,37.9,36.3,29.96,NW,305,0.0,6.0,94,0.01,,,0.26,WUHU216DAVISVP2,2013-01-16 21:16:00,
2013-01-16 16:21:00,37.9,36.0,29.97,SSW,199,1.0,6.0,93,0.01,,,0.26,WUHU216DAVISVP2,2013-01-16 21:21:00,
2013-01-16 16:26:00,37.9,36.0,29.98,South,187,2.0,7.0,93,0.01,,,0.26,WUHU216DAVISVP2,2013-01-16 21:26:00,
2013-01-16 16:31:00,38.0,36.1,29.97,WSW,240,4.0,7.0,93,0.02,,,0.27,WUHU216DAVISVP2,2013-01-16 21:31:00,
2013-01-16 16:36:00,38.0,36.2,29.97,SSW,198,3.0,7.0,93,0.02,,,0.27,WUHU216DAVISVP2,2013-01-16 21:36:00,
2013-01-16 16:41:00,38.0,36.2,29.98,SSW,201,2.0,7.0,93,0.02,,,0.27,WUHU216DAVISVP2,2013-01-16 21:41:00,
2013-01-16 16:46:00,38.0,35.9,29.98,WNW,295,3.0,14.0,92,0.02,,,0.27,WUHU216DAVISVP2,2013-01-16 21:46:00,
2013-01-16 16:51:00,38.0,35.9,29.98,WSW,239,2.0,14.0,92,0.01,,,0.27,WUHU216DAVISVP2,2013-01-16 21:51:00,
2013-01-16 16:56:00,38.0,35.8,29.98,SSW,192,5.0,14.0,92,0.01,,,0.27,WUHU216DAVISVP2,2013-01-16 21:56:00,
2013-01-16 17:01:00,37.9,35.7,29.98,South,176,3.0,14.0,92,0.01,,,0.27,WUHU216DAVISVP2,2013-01-16 22:01:00,
2013-01-16 17:06:00,37.9,35.7,29.98,SSW,193,9.0,9.0,92,0.01,,,0.27,WUHU216DAVISVP2,2013-01-16 22:06:00,
2013-01-16 17:11:00,37.8,35.6,29.98,SSW,195,7.0,12.0,92,0.01,,,0.27,WUHU216DAVISVP2,2013-01-16 22:11:00,
2013-01-16 17:16:00,37.8,35.6,29.98,WSW,249,2.0,13.0,92,0.01,,,0.27,WUHU216DAVISVP2,2013-01-16 22:16:00,
2013-01-16 17:21:00,37.8,35.4,29.98,SSW,208,7.0,13.0,91,0.02,,,0.28,WUHU216DAVISVP2,2013-01-16 22:21:00,
2013-01-16 17:26:00,37.8,35.4,29.98,SW,215,10.0,13.0,91,0.02,,,0.28,WUHU216DAVISVP2,2013-01-16 22:26:00,
2013-01-16 17:31:00,37.8,35.4,29.99,SW,215,1.0,10.0,91,0.01,,,0.28,WUHU216DAVISVP2,2013-01-16 22:31:00,
2013-01-16 17:36:00,37.8,35.1,29.98,SSW,195,4.0,13.0,90,0.01,,,0.28,WUHU216DAVISVP2,2013-01-16 22:36:00,
2013-01-16 17:41:00,37.8,35.1,29.98,SE,141,0.0,13.0,90,0.01,,,0.28,WUHU216DAVISVP2,2013-01-16 22:41:00,
2013-01-16 17:46:00,37.8,35.1,29.99,South,185,3.0,13.0,90,0.01,,,0.28,WUHU216DAVISVP2,2013-01-16 22:46:00,
2013-01-16 17:51:00,37.8,35.1,29.99,NNW,347,2.0,13.0,90,0.01,,,0.28,WUHU216DAVISVP2,2013-01-16 22:51:00,
2013-01-16 17:56:00,37.7,35.0,29.99,NNW,328,1.0,6.0,90,0.01,,,0.28,WUHU216DAVISVP2,2013-01-16 22:56:00,
2013-01-16 18:01:00,37.7,35.0,29.99,NNW,342,0.0,6.0,90,0.01,,,0.28,WUHU216DAVISVP2,2013-01-16 23:01:00,
2013-01-16 18:06:00,37.6,34.9,30.00,North,4,0.0,5.0,90,0.01,,,0.28,WUHU216DAVISVP2,2013-01-16 23:06:00,
2013-01-16 18:11:00,37.6,34.9,30.00,SSW,203,0.0,4.0,90,0.02,,,0.29,WUHU216DAVISVP2,2013-01-16 23:11:00,
2013-01-16 18:16:00,37.6,34.9,30.01,NNW,330,1.0,5.0,90,0.01,,,0.29,WUHU216DAVISVP2,2013-01-16 23:16:00,
2013-01-16 18:21:00,37.5,34.5,30.02,NW,316,0.0,5.0,89,0.01,,,0.29,WUHU216DAVISVP2,2013-01-16 23:21:00,
2013-01-16 18:26:00,37.5,34.5,30.02,SW,215,3.0,5.0,89,0.01,,,0.29,WUHU216DAVISVP2,2013-01-16 23:26:00,
2013-01-16 18:31:00,37.6,34.3,30.02,SSW,208,3.0,7.0,88,0.01,,,0.29,WUHU216DAVISVP2,2013-01-16 23:31:00,
2013-01-16 18:36:00,37.6,34.4,30.02,SSW,210,0.0,7.0,88,0.01,,,0.29,WUHU216DAVISVP2,2013-01-16 23:36:00,
2013-01-16 18:41:00,37.5,34.3,30.02,SW,216,0.0,7.0,88,0.01,,,0.29,WUHU216DAVISVP2,2013-01-16 23:41:00,
2013-01-16 18:46:00,37.5,34.3,30.03,WNW,292,0.0,7.0,88,0.01,,,0.29,WUHU216DAVISVP2,2013-01-16 23:46:00,
2013-01-16 18:51:00,37.5,34.3,30.03,SSW,208,0.0,4.0,88,0.01,,,0.29,WUHU216DAVISVP2,2013-01-16 23:51:00,
2013-01-16 18:56:00,37.4,34.1,30.03,SW,217,0.0,4.0,88,0.01,,,0.29,WUHU216DAVISVP2,2013-01-16 23:56:00,
2013-01-16 19:01:00,37.4,34.1,30.02,SSW,194,3.0,8.0,88,0.01,,,0.29,WUHU216DAVISVP2,2013-01-17 00:01:00,
2013-01-16 19:06:00,37.4,34.1,30.03,South,187,1.0,8.0,88,0.01,,,0.29,WUHU216DAVISVP2,2013-01-17 00:06:00,
2013-01-16 19:11:00,37.4,33.9,30.03,SSW,212,0.0,9.0,87,0.00,,,0.29,WUHU216DAVISVP2,2013-01-17 00:11:00,
2013-01-16 19:16:00,37.4,33.9,30.02,SW,228,2.0,9.0,87,0.00,,,0.29,WUHU216DAVISVP2,2013-01-17 00:16:00,
2013-01-16 19:21:00,37.3,34.0,30.03,WSW,258,0.0,9.0,88,0.00,,,0.29,WUHU216DAVISVP2,2013-01-17 00:21:00,
2013-01-16 19:26:00,37.3,34.0,30.03,South,171,0.0,9.0,88,0.00,,,0.29,WUHU216DAVISVP2,2013-01-17 00:26:00,
2013-01-16 19:31:00,37.2,34.0,30.03,South,171,0.0,5.0,88,0.00,,,0.29,WUHU216DAVISVP2,2013-01-17 00:31:00,
2013-01-16 19:36:00,37.1,33.9,30.03,East,93,0.0,3.0,88,0.00,,,0.29,WUHU216DAVISVP2,2013-01-17 00:36:00,
2013-01-16 19:41:00,37.1,33.6,30.03,North,359,0.0,2.0,87,0.00,,,0.29,WUHU216DAVISVP2,2013-01-17 00:41:00,
2013-01-16 19:46:00,37.0,33.5,30.03,SE,124,0.0,4.0,87,0.00,,,0.29,WUHU216DAVISVP2,2013-01-17 00:46:00,
2013-01-16 19:51:00,37.0,33.5,30.04,SE,129,2.0,4.0,87,0.00,,,0.29,WUHU216DAVISVP2,2013-01-17 00:51:00,
2013-01-16 19:56:00,37.1,33.3,30.03,SSW,209,0.0,8.0,86,0.00,,,0.29,WUHU216DAVISVP2,2013-01-17 00:56:00,
2013-01-16 20:01:00,37.2,33.4,30.03,SE,124,0.0,8.0,86,0.00,,,0.29,WUHU216DAVISVP2,2013-01-17 01:01:00,
2013-01-16 20:06:00,37.2,33.7,30.03,SE,125,0.0,8.0,87,0.00,,,0.29,WUHU216DAVISVP2,2013-01-17 01:06:00,
2013-01-16 20:11:00,37.2,33.4,30.02,SSW,195,0.0,8.0,86,0.00,,,0.29,WUHU216DAVISVP2,2013-01-17 01:11:00,
2013-01-16 20:16:00,37.1,33.6,30.03,SSE,159,1.0,8.0,87,0.00,,,0.29,WUHU216DAVISVP2,2013-01-17 01:16:00,
2013-01-16 20:21:00,37.1,33.6,30.03,SSE,168,0.0,4.0,87,0.00,,,0.29,WUHU216DAVISVP2,2013-01-17 01:21:00,
2013-01-16 20:26:00,37.0,33.2,30.03,West,276,1.0,4.0,86,0.00,,,0.29,WUHU216DAVISVP2,2013-01-17 01:26:00,
2013-01-16 20:31:00,37.0,33.2,30.03,WNW,285,0.0,4.0,86,0.00,,,0.29,WUHU216DAVISVP2,2013-01-17 01:31:00,
2013-01-16 20:36:00,36.9,33.1,30.03,West,264,2.0,5.0,86,0.00,,,0.29,WUHU216DAVISVP2,2013-01-17 01:36:00,
2013-01-16 20:41:00,37.0,33.2,30.03,SSW,203,4.0,7.0,86,0.00,,,0.29,WUHU216DAVISVP2,2013-01-17 01:41:00,
2013-01-16 20:46:00,37.0,33.2,30.03,NW,314,0.0,7.0,86,0.00,,,0.29,WUHU216DAVISVP2,2013-01-17 01:46:00,
2013-01-16 20:51:00,37.0,33.2,30.03,NNW,339,0.0,7.0,86,0.00,,,0.29,WUHU216DAVISVP2,2013-01-17 01:51:00,
2013-01-16 20:56:00,36.9,33.1,30.03,SSW,193,3.0,4.0,86,0.00,,,0.29,WUHU216DAVISVP2,2013-01-17 01:56:00,
2013-01-16 21:01:00,36.9,33.1,30.03,SSE,156,4.0,9.0,86,0.00,,,0.29,WUHU216DAVISVP2,2013-01-17 02:01:00,
2013-01-16 21:06:00,36.9,33.1,30.02,WSW,245,3.0,9.0,86,0.00,,,0.29,WUHU216DAVISVP2,2013-01-17 02:06:00,
2013-01-16 21:11:00,36.8,33.0,30.03,SSE,168,1.0,9.0,86,0.00,,,0.29,WUHU216DAVISVP2,2013-01-17 02:11:00,
2013-01-16 21:16:00,36.8,33.0,30.04,SW,216,7.0,7.0,86,0.00,,,0.29,WUHU216DAVISVP2,2013-01-17 02:16:00,
2013-01-16 21:21:00,36.8,33.0,30.03,SSW,201,2.0,7.0,86,0.00,,,0.29,WUHU216DAVISVP2,2013-01-17 02:21:00,
2013-01-16 21:26:00,36.8,32.7,30.03,South,176,1.0,7.0,85,0.00,,,0.29,WUHU216DAVISVP2,2013-01-17 02:26:00,
2013-01-16 21:31:00,36.9,32.8,30.03,SSW,201,4.0,9.0,85,0.00,,,0.29,WUHU216DAVISVP2,2013-01-17 02:31:00,
2013-01-16 21:36:00,36.9,32.8,30.03,SSE,166,2.0,9.0,85,0.00,,,0.29,WUHU216DAVISVP2,2013-01-17 02:36:00,
2013-01-16 21:41:00,36.8,32.7,30.03,South,173,0.0,9.0,85,0.00,,,0.29,WUHU216DAVISVP2,2013-01-17 02:41:00,
2013-01-16 21:46:00,36.8,32.7,30.03,SSW,199,2.0,9.0,85,0.00,,,0.29,WUHU216DAVISVP2,2013-01-17 02:46:00,
2013-01-16 21:51:00,36.8,32.7,30.03,SSE,156,5.0,6.0,85,0.00,,,0.29,WUHU216DAVISVP2,2013-01-17 02:51:00,
2013-01-16 21:56:00,36.7,32.6,30.03,South,177,0.0,6.0,85,0.00,,,0.29,WUHU216DAVISVP2,2013-01-17 02:56:00,
2013-01-16 22:01:00,36.6,32.5,30.03,SSW,210,0.0,6.0,85,0.00,,,0.29,WUHU216DAVISVP2,2013-01-17 03:01:00,
2013-01-16 22:06:00,36.6,32.5,30.04,SSW,193,0.0,6.0,85,0.00,,,0.29,WUHU216DAVISVP2,2013-01-17 03:06:00,
2013-01-16 22:11:00,36.5,32.4,30.04,SSW,194,0.0,5.0,85,0.00,,,0.29,WUHU216DAVISVP2,2013-01-17 03:11:00,
2013-01-16 22:16:00,36.5,32.4,30.04,South,187,2.0,5.0,85,0.00,,,0.29,WUHU216DAVISVP2,2013-01-17 03:16:00,
2013-01-16 22:21:00,36.5,32.4,30.04,SSW,213,1.0,5.0,85,0.00,,,0.29,WUHU216DAVISVP2,2013-01-17 03:21:00,
2013-01-16 22:26:00,36.5,32.4,30.04,South,174,2.0,5.0,85,0.00,,,0.29,WUHU216DAVISVP2,2013-01-17 03:26:00,
2013-01-16 22:31:00,36.4,32.6,30.04,South,189,1.0,5.0,86,0.00,,,0.29,WUHU216DAVISVP2,2013-01-17 03:31:00,
2013-01-16 22:36:00,36.4,32.3,30.05,SSW,204,7.0,7.0,85,0.00,,,0.29,WUHU216DAVISVP2,2013-01-17 03:36:00,
2013-01-16 22:41:00,36.4,32.0,30.04,West,260,1.0,7.0,84,0.00,,,0.29,WUHU216DAVISVP2,2013-01-17 03:41:00,
2013-01-16 22:46:00,36.4,32.0,30.04,South,191,0.0,7.0,84,0.00,,,0.29,WUHU216DAVISVP2,2013-01-17 03:46:00,
2013-01-16 22:51:00,36.4,32.0,30.03,WNW,282,2.0,7.0,84,0.00,,,0.29,WUHU216DAVISVP2,2013-01-17 03:51:00,
2013-01-16 22:56:00,36.3,31.9,30.04,SSW,192,7.0,7.0,84,0.00,,,0.29,WUHU216DAVISVP2,2013-01-17 03:56:00,
2013-01-16 23:01:00,36.4,31.7,30.04,SSW,197,2.0,8.0,83,0.00,,,0.29,WUHU216DAVISVP2,2013-01-17 04:01:00,
2013-01-16 23:06:00,36.4,31.7,30.04,WSW,251,1.0,8.0,83,0.00,,,0.29,WUHU216DAVISVP2,2013-01-17 04:06:00,
2013-01-16 23:11:00,36.4,31.7,30.03,SSW,202,3.0,8.0,83,0.00,,,0.29,WUHU216DAVISVP2,2013-01-17 04:11:00,
2013-01-16 23:16:00,36.4,31.4,30.03,South,176,5.0,7.0,82,0.00,,,0.29,WUHU216DAVISVP2,2013-01-17 04:16:00,
2013-01-16 23:21:00,36.3,31.0,30.03,SSW,211,3.0,8.0,81,0.00,,,0.29,WUHU216DAVISVP2,2013-01-17 04:21:00,
2013-01-16 23:26:00,36.4,31.4,30.03,WSW,246,0.0,8.0,82,0.00,,,0.29,WUHU216DAVISVP2,2013-01-17 04:26:00,
2013-01-16 23:31:00,36.3,31.3,30.03,SW,226,5.0,8.0,82,0.00,,,0.29,WUHU216DAVISVP2,2013-01-17 04:31:00,
2013-01-16 23:36:00,36.2,31.2,30.04,WSW,239,0.0,7.0,82,0.00,,,0.29,WUHU216DAVISVP2,2013-01-17 04:36:00,
2013-01-16 23:41:00,36.1,31.4,30.04,SSW,205,0.0,7.0,83,0.00,,,0.29,WUHU216DAVISVP2,2013-01-17 04:41:00,
2013-01-16 23:46:00,36.0,31.0,30.03,SSW,204,0.0,7.0,82,0.00,,,0.29,WUHU216DAVISVP2,2013-01-17 04:46:00,
2013-01-16 23:51:00,36.0,31.3,30.04,SSE,160,0.0,4.0,83,0.00,,,0.29,WUHU216DAVISVP2,2013-01-17 04:51:00,
2013-01-16 23:56:00,36.0,31.0,30.04,South,176,0.0,6.0,82,0.00,,,0.29,WUHU216DAVISVP2,2013-01-17 04:56:00,